This demonstration page uses our WeatherBlox Daily Observations layout. Learn more.

Left ArrowRight Arrow

36.19886, -115.1175

Hourly Observations for May 29, 2020

Temp ( °F °C ) Dew Point ( °F °C ) Humidity (%) Winds ( mph kmh ) Pressure ( in mb ) Visibility ( mi km ) Precip ( " mm )
12:53 am 00:53 Clear 89 31.7 32 undefined 13 13 SSE 5 7 29.83 1010 10 16 N/A
1:53 am 01:53 Clear 85 29.4 34 1.1 16 16 WNW 6 9 29.84 1010 10 16 N/A
2:53 am 02:53 Clear 84 28.9 36 2.2 18 18 W 6 9 29.85 1011 10 16 N/A
3:53 am 03:53 Clear 81 27.2 36 2.2 20 20 W 3 6 29.85 1011 10 16 N/A
4:53 am 04:53 Clear 79 26.1 36 2.2 21 21 NW 3 6 29.87 1012 10 16 N/A
5:53 am 05:53 Sunny 78 25.6 35 1.7 21 21 NNW 3 6 29.89 1012 10 16 N/A
6:53 am 06:53 Sunny 84 28.9 37 2.8 19 19 WNW 5 7 29.90 1012 10 16 N/A
7:53 am 07:53 Sunny 89 31.7 37 2.8 16 16 NNE 3 6 29.90 1013 10 16 N/A
8:53 am 08:53 Sunny 92 33.3 34 1.1 13 13 N N/A 29.91 1013 10 16 N/A
9:53 am 09:53 Sunny 96 35.6 33 0.6 11 11 SE 8 13 29.90 1012 10 16 N/A
10:53 am 10:53 Sunny 99 37.2 34 1.1 10 10 ESE 10 17 29.89 1012 10 16 N/A
11:53 am 11:53 Sunny 103 39.4 33 0.6 9 9 SE 13 20 29.87 1011 10 16 N/A
12:53 pm 12:53 Sunny 105 40.6 31 -0.6 7 7 SE 14 22 29.83 1010 10 16 N/A
1:20 pm 13:20 Sunny 106 41.1 32 undefined 8 8 SE 13 20 29.64 1004 10 16 N/A
1:53 pm 13:53 Sunny 109 42.8 30 -1.1 6 6 SSE 21 33 29.81 1009 10 16 N/A
2:53 pm 14:53 Sunny 108 42.2 26 -3.3 6 6 SSW 17 28 29.79 1009 10 16 N/A
3:53 pm 15:53 Sunny 108 42.2 26 -3.3 6 6 SSW 21 33 29.77 1008 10 16 N/A
4:53 pm 16:53 Sunny 107 41.7 27 -2.8 6 6 SSW 21 33 29.76 1008 10 16 N/A
5:53 pm 17:53 Sunny 103 39.4 28 -2.2 7 7 SSW 23 37 29.76 1008 10 16 N/A
6:53 pm 18:53 Sunny 101 38.3 30 -1.1 8 8 SSW 20 31 29.77 1008 10 16 N/A
7:53 pm 19:53 Clear 99 37.2 30 -1.1 9 9 SSW 9 15 29.78 1008 10 16 N/A
8:53 pm 20:53 Clear 97 36.1 31 -0.6 10 10 S 8 13 29.78 1009 10 16 N/A
9:53 pm 21:53 Clear 95 35 31 -0.6 10 10 S 9 15 29.79 1009 10 16 N/A
10:53 pm 22:53 Clear 93 33.9 32 undefined 11 11 SW 8 13 29.79 1009 10 16 N/A
11:53 pm 23:53 Clear 89 31.7 33 0.6 14 14 N N/A 29.78 1008 10 16 N/A

Powered by AerisWeather